PBO Station Position Time Series. Reference Frame : NAM14
Format Version,1.1.1
4-character ID,SWNB
Station name,Southwest_of_New
Begin Date, 2011-08-24
End Date, 2023-06-26
Release Date, 2023-06-27
Reference position, 43.6727375428 North Latitude, -121.3554449605 East Longitude, 1550.35535 meters elevation,
Date, North (mm), East (mm), Vertical (mm), North Std. Deviation (mm), East Std. Deviation (mm),              Vertical Std. Deviation (mm), Quality,
2011-08-24,0.00, 0.00, 0.00, 2.11, 1.53, 6.97, repro,
2011-08-25,-1.16, 0.34, 0.42, 2.04, 1.47, 6.72, repro,
2011-08-26,-1.30, 1.06, -2.02, 2.11, 1.54, 6.99, repro,
2011-08-27,-1.77, 2.07, -9.93, 2.21, 1.57, 7.26, repro,
2011-08-28,-1.31, 1.25, -6.05, 2.10, 1.52, 6.97, repro,
2011-08-29,-1.40, 2.17, -0.48, 2.03, 1.48, 6.77, repro,
2011-08-30,-2.16, 0.91, -4.43, 2.08, 1.48, 6.84, repro,
2011-08-31,-1.46, 2.37, 3.29, 2.10, 1.50, 6.90, repro,
2011-09-01,-2.46, 1.80, -4.21, 2.08, 1.50, 6.93, repro,
2011-09-02,-0.90, 1.51, -0.75, 2.15, 1.53, 7.11, repro,
2011-09-03,-0.68, 2.30, -3.45, 2.06, 1.49, 6.85, repro,
2011-09-04,-1.03, 2.55, -2.46, 2.06, 1.49, 6.83, repro,
2011-09-05,-2.85, 1.75, 7.30, 2.21, 1.58, 7.19, repro,
2011-09-06,-1.04, 2.24, -2.82, 2.18, 1.55, 7.01, repro,
2011-09-07,-0.57, 1.59, -8.13, 2.14, 1.52, 6.97, repro,
2011-09-08,-1.20, 3.17, -3.77, 2.06, 1.48, 6.81, repro,
2011-09-09,-0.74, 2.08, -1.14, 2.14, 1.54, 7.04, repro,
2011-09-10,-1.74, 1.64, 2.95, 2.10, 1.52, 6.93, repro,
2011-09-11,-1.14, 2.27, -0.02, 2.04, 1.49, 6.76, repro,
2011-09-12,0.68, 1.29, -5.23, 2.04, 1.48, 6.77, repro,
2011-09-13,-2.18, 1.73, -1.91, 2.10, 1.51, 6.92, repro,
2011-09-14,-1.35, 1.94, -3.80, 2.15, 1.55, 7.10, repro,
2011-09-15,-0.92, 3.05, -6.90, 2.04, 1.47, 6.73, repro,
2011-09-16,-1.58, 2.19, -2.33, 2.05, 1.52, 6.83, repro,
2011-09-17,-1.05, 1.36, -4.52, 2.04, 1.50, 6.83, repro,
2011-09-18,-0.18, 1.39, -4.74, 2.06, 1.50, 6.86, repro,
2011-09-19,0.06, 2.99, -9.57, 2.19, 1.63, 7.42, repro,
2011-09-20,-0.63, 2.71, -4.20, 2.08, 1.52, 6.88, repro,
2011-09-21,-0.71, 1.85, -1.65, 2.03, 1.47, 6.73, repro,
2011-09-22,-0.02, 3.41, 0.90, 2.05, 1.49, 6.81, repro,
2011-09-23,0.00, 2.47, 0.96, 2.16, 1.57, 7.16, repro,
2011-09-24,-0.35, 2.01, 1.29, 2.05, 1.48, 6.76, repro,
2011-09-25,-0.27, 0.29, 7.00, 2.10, 1.52, 6.95, repro,
2011-09-26,-1.05, 2.79, -1.00, 2.16, 1.55, 7.05, repro,
2011-09-27,-3.18, 2.46, 1.84, 2.11, 1.54, 7.01, repro,
2011-09-28,-2.47, 1.24, 4.82, 2.13, 1.54, 6.99, repro,
2011-09-29,-0.85, 2.34, 1.90, 2.11, 1.50, 6.86, repro,
2011-09-30,-1.41, 2.39, 3.32, 2.12, 1.56, 7.04, repro,
2011-10-01,0.05, 0.73, 5.58, 2.11, 1.53, 6.93, repro,
2011-10-02,-0.90, 2.48, -0.40, 2.09, 1.52, 6.89, repro,
2011-10-03,-1.69, 1.73, 4.12, 2.05, 1.47, 6.75, repro,
2011-10-04,-2.37, 2.89, 11.83, 2.12, 1.51, 6.93, repro,
2011-10-05,-2.70, 1.31, 16.90, 2.15, 1.54, 7.01, repro,
2011-10-06,-2.21, 1.47, 7.42, 2.11, 1.54, 6.98, repro,
2011-10-07,-1.60, -0.49, -3.71, 2.17, 1.56, 7.05, repro,
2011-10-08,-1.51, 0.94, 2.72, 2.26, 1.61, 7.24, repro,
2011-10-09,-1.64, 2.04, -0.62, 2.13, 1.52, 6.92, repro,
2011-10-10,-2.79, 0.94, 8.05, 2.19, 1.57, 7.17, repro,
2011-10-11,-4.15, 1.39, 12.66, 2.30, 1.60, 7.26, repro,
2011-10-12,-0.96, 1.38, -1.75, 2.10, 1.53, 6.93, repro,
2011-10-13,-1.60, 0.55, -4.12, 2.15, 1.56, 7.07, repro,
2011-10-14,-2.37, 1.41, 6.58, 2.16, 1.57, 7.12, repro,
2011-10-15,-0.24, 0.88, 2.90, 2.13, 1.53, 6.97, repro,
2011-10-16,-2.74, 0.52, 15.54, 2.12, 1.54, 6.99, repro,
2011-10-17,0.06, 2.05, -4.79, 2.13, 1.54, 7.00, repro,
2011-10-18,-0.42, 2.66, -6.95, 2.13, 1.53, 6.96, repro,
2011-10-19,-2.06, 1.81, 3.77, 2.18, 1.61, 7.24, repro,
2011-10-20,-2.33, 2.68, 8.05, 2.08, 1.51, 6.84, repro,
2011-10-21,-1.58, 2.57, -6.48, 2.09, 1.47, 6.74, repro,
2011-10-22,0.41, 3.05, -7.57, 2.41, 1.71, 7.78, repro,
2011-10-23,0.16, 2.53, -5.42, 2.52, 1.71, 7.91, repro,
2011-10-24,-1.51, 0.43, 0.39, 2.10, 1.52, 6.94, repro,
2011-10-25,0.25, 2.49, -8.06, 2.48, 1.72, 7.92, repro,
2011-10-26,-1.37, 2.05, -3.19, 2.11, 1.52, 6.90, repro,
2011-10-27,0.29, 2.19, -3.19, 2.09, 1.51, 6.82, repro,
2011-10-28,-0.61, 2.46, -1.57, 2.08, 1.52, 6.87, repro,
2011-10-29,-0.63, 0.73, 2.85, 2.11, 1.55, 6.98, repro,
2011-10-30,-3.86, 1.31, 2.61, 2.25, 1.62, 7.46, repro,
2011-10-31,-0.72, 1.70, 6.36, 2.05, 1.46, 6.67, repro,
2011-11-01,-1.17, 1.77, -6.44, 2.33, 1.64, 7.63, repro,
2011-11-02,-1.66, 1.34, -4.92, 2.11, 1.50, 6.86, repro,
2011-11-03,-1.70, 1.33, -0.66, 2.17, 1.57, 7.13, repro,
2011-11-04,-0.64, 1.03, 2.01, 2.11, 1.52, 6.96, repro,
2011-11-05,-0.38, 1.58, 5.43, 2.12, 1.52, 7.02, repro,
2011-11-06,-1.00, 0.67, 2.56, 2.20, 1.55, 7.20, repro,
2011-11-07,-2.06, 0.63, -2.94, 2.20, 1.56, 7.13, repro,
2011-11-08,-0.95, 2.04, -10.07, 2.13, 1.53, 7.05, repro,
2011-11-09,-2.23, 2.04, -7.28, 2.11, 1.52, 6.87, repro,
2011-11-10,-1.66, 2.12, -5.18, 2.11, 1.51, 6.86, repro,
2011-11-11,8.87, 2.77, 20.79, 10.14, 5.79, 27.74, repro,
2011-11-13,-0.02, 1.15, 9.66, 2.12, 1.51, 6.88, repro,
2011-11-14,-0.31, 0.26, -0.41, 2.14, 1.53, 7.07, repro,
2011-11-15,-1.09, -0.34, 5.40, 2.14, 1.53, 7.06, repro,
2011-11-16,0.07, 1.31, -1.28, 2.32, 1.61, 7.38, repro,
2011-11-17,-0.85, 0.12, 5.41, 2.12, 1.51, 6.94, repro,
2011-11-18,0.69, 1.04, 0.55, 3.74, 2.75, 11.74, repro,
2011-11-19,0.75, -0.54, 1.44, 2.15, 1.56, 7.15, repro,
2011-11-20,-0.48, 0.34, 7.17, 2.18, 1.60, 7.15, repro,
2011-11-21,-0.95, -0.12, 9.97, 2.24, 1.61, 7.35, repro,
2011-11-22,0.81, 2.76, 17.01, 2.10, 1.50, 6.87, repro,
2011-11-23,-3.66, 0.38, 5.90, 2.24, 1.54, 7.19, repro,
2011-11-24,-1.78, 1.18, 8.43, 2.07, 1.48, 6.77, repro,
2011-11-25,-3.20, 1.05, 0.74, 2.16, 1.54, 7.13, repro,
2011-11-26,-1.65, 1.22, -5.49, 2.07, 1.48, 6.77, repro,
2011-11-27,-1.59, 1.05, -1.42, 2.11, 1.54, 7.02, repro,
2011-11-28,-1.58, -0.04, -1.77, 2.08, 1.53, 6.86, repro,
2011-11-29,-0.63, 0.80, -6.33, 2.12, 1.55, 7.07, repro,
2011-11-30,-1.71, 0.15, -3.08, 2.16, 1.53, 7.06, repro,
2011-12-01,-1.26, -1.02, -6.31, 2.08, 1.49, 6.83, repro,
2011-12-02,-0.78, 1.09, 0.62, 2.13, 1.54, 7.03, repro,
2011-12-03,0.45, 0.61, -9.57, 2.14, 1.58, 7.09, repro,
2011-12-04,-0.21, 0.20, -9.94, 2.12, 1.53, 6.99, repro,
2011-12-05,0.69, 0.88, -9.29, 2.09, 1.53, 6.95, repro,
2011-12-06,-0.31, 0.22, -5.92, 2.12, 1.54, 6.99, repro,
2011-12-07,-0.62, 0.54, -3.71, 2.10, 1.52, 6.93, repro,
2011-12-08,-0.13, 0.72, -3.78, 2.10, 1.51, 6.93, repro,
2011-12-09,-1.11, 1.65, -3.57, 2.07, 1.49, 6.82, repro,
2011-12-10,-1.25, 1.21, 0.26, 2.05, 1.48, 6.75, repro,
2011-12-11,-0.61, 1.07, 1.19, 2.09, 1.52, 6.95, repro,
2011-12-12,-1.04, 0.01, 0.54, 2.06, 1.48, 6.75, repro,
2011-12-13,-1.58, 0.87, 0.36, 2.06, 1.48, 6.76, repro,
2011-12-14,-0.67, 0.83, -0.73, 2.10, 1.51, 6.91, repro,
2011-12-15,-0.79, 1.00, 2.44, 2.18, 1.57, 7.17, repro,
2011-12-16,-0.99, 1.93, -5.00, 2.13, 1.53, 6.98, repro,
2011-12-17,-0.17, 1.39, -4.30, 2.09, 1.52, 6.97, repro,
2011-12-18,-2.87, 1.53, 3.16, 2.07, 1.50, 6.86, repro,
2011-12-19,-0.48, 0.86, 0.22, 2.06, 1.48, 6.79, repro,
2011-12-20,0.01, 2.01, -4.99, 2.11, 1.56, 6.98, repro,
2011-12-21,0.77, 0.96, -2.84, 2.07, 1.50, 6.85, repro,
2011-12-22,-0.11, 1.21, -8.13, 2.14, 1.55, 7.05, repro,
2011-12-23,-1.23, 1.13, -5.53, 2.10, 1.52, 6.87, repro,
2011-12-24,-1.10, 0.44, -3.58, 2.21, 1.68, 7.43, repro,
2011-12-25,-1.93, 1.12, -4.61, 2.10, 1.50, 6.81, repro,
2011-12-27,-1.27, 0.53, -1.21, 2.08, 1.50, 6.78, repro,
2011-12-28,-2.09, -0.49, 14.80, 2.11, 1.53, 6.96, repro,
2011-12-29,-1.48, 0.06, 14.10, 2.10, 1.52, 6.90, repro,
2011-12-30,-2.83, -0.34, 10.80, 2.09, 1.51, 6.83, repro,
2011-12-31,-0.74, -0.54, 1.63, 2.07, 1.48, 6.76, repro,
2012-01-01,-0.33, 0.34, -9.53, 2.06, 1.47, 6.69, repro,
2012-01-02,-0.13, 0.98, -5.13, 2.06, 1.47, 6.72, repro,
2012-01-03,-1.02, 0.32, -3.17, 2.10, 1.52, 6.88, repro,
2012-01-04,-0.86, 0.38, 0.39, 2.09, 1.50, 6.82, repro,
2012-01-05,-3.28, -0.56, 2.57, 2.10, 1.51, 6.87, repro,
2012-01-06,-1.06, 0.64, 1.71, 2.07, 1.48, 6.77, repro,
2012-01-07,-0.98, -0.91, 0.24, 2.10, 1.50, 6.84, repro,
2012-01-08,-0.57, 0.40, 0.90, 2.07, 1.48, 6.77, repro,
2012-01-09,-1.06, 0.54, 0.92, 2.10, 1.50, 6.82, repro,
2012-01-10,-1.11, -0.84, -1.44, 2.15, 1.58, 7.27, repro,
2012-01-11,-0.97, 0.26, -3.87, 2.14, 1.55, 7.03, repro,
2012-01-12,0.04, 0.63, -1.18, 2.08, 1.48, 6.80, repro,
2012-01-13,-0.64, -0.09, -2.40, 2.14, 1.53, 7.00, repro,
2012-01-14,-2.46, 0.44, 0.84, 2.10, 1.51, 6.89, repro,
2012-01-15,-1.81, -0.39, 1.37, 2.09, 1.50, 6.89, repro,
2012-01-16,-0.37, 1.17, -0.58, 2.93, 1.98, 8.96, repro,
2012-01-17,-0.43, 0.08, -2.92, 2.09, 1.50, 6.85, repro,
2012-01-18,-2.71, -1.05, 12.70, 2.11, 1.51, 6.89, repro,
2012-01-19,1.49, 2.25, 20.93, 2.08, 1.50, 6.90, repro,
2012-01-20,6.86, -2.82, 11.29, 2.11, 1.52, 6.97, repro,
2012-01-21,2.37, 3.13, 22.05, 2.14, 1.52, 7.01, repro,
2012-01-22,0.10, -1.84, 2.96, 2.07, 1.50, 6.86, repro,
2012-01-23,0.66, -0.69, 4.35, 2.10, 1.51, 6.95, repro,
2012-01-24,0.78, -0.54, 2.33, 2.09, 1.51, 6.91, repro,
2012-01-25,-2.02, -0.65, 1.61, 2.10, 1.50, 6.86, repro,
2012-01-26,-0.73, -0.33, -0.68, 2.17, 1.59, 7.20, repro,
2012-01-27,1.12, 0.18, -9.10, 2.09, 1.51, 6.92, repro,
2012-01-28,0.85, 0.23, -10.59, 2.09, 1.51, 6.90, repro,
2012-01-29,-1.31, -0.11, 0.55, 2.09, 1.51, 6.92, repro,
2012-01-30,-2.77, 0.13, -1.28, 2.07, 1.50, 6.88, repro,
2012-01-31,-0.16, -0.43, 2.24, 2.06, 1.48, 6.79, repro,
2012-02-01,-0.24, -0.26, 0.32, 2.09, 1.52, 6.98, repro,
2012-02-02,-0.60, -0.20, -7.96, 2.12, 1.55, 7.05, repro,
2012-02-03,-1.41, 0.13, -6.46, 2.10, 1.51, 6.88, repro,
2012-02-04,-1.43, -0.17, -4.66, 2.12, 1.54, 6.97, repro,
2012-02-05,-0.77, 0.06, -6.32, 2.15, 1.59, 7.18, repro,
2012-02-06,0.14, -0.25, -4.92, 2.13, 1.55, 7.07, repro,
2012-02-07,0.40, -0.05, -8.98, 2.20, 1.58, 7.28, repro,
2012-02-08,0.97, -0.23, 0.54, 2.14, 1.55, 7.08, repro,
2012-02-09,-0.48, -0.62, -7.95, 2.15, 1.54, 7.00, repro,
2012-02-10,-1.07, -1.14, -2.39, 2.11, 1.51, 6.89, repro,
2012-02-11,-1.25, -0.56, -3.33, 2.09, 1.51, 6.86, repro,
2012-02-12,-0.45, -0.54, -3.79, 2.11, 1.51, 6.91, repro,
2012-02-13,-0.43, -1.35, -0.61, 2.11, 1.51, 6.92, repro,
2012-02-14,-0.95, -1.11, 4.91, 2.11, 1.51, 6.91, repro,
2012-02-15,-0.50, -0.56, -1.09, 2.10, 1.51, 6.91, repro,
2012-02-16,-1.45, -0.16, -4.30, 2.05, 1.47, 6.76, repro,
2012-02-17,-0.17, -0.16, -6.74, 2.05, 1.47, 6.78, repro,
2012-02-18,-0.32, 0.76, -1.30, 2.10, 1.51, 6.92, repro,
2012-02-19,-1.57, -2.39, 10.31, 2.76, 2.08, 9.27, repro,
2012-02-20,-2.35, -1.41, 4.14, 2.08, 1.49, 6.85, repro,
2012-02-21,-0.35, 1.63, -0.25, 2.10, 1.50, 6.91, repro,
2012-02-22,-1.50, 0.24, 2.22, 2.11, 1.50, 6.93, repro,
2012-02-23,0.56, -1.86, 4.85, 2.11, 1.52, 6.97, repro,
2012-02-24,-1.22, -0.19, -4.98, 2.09, 1.48, 6.86, repro,
2012-02-25,-1.18, 1.63, 7.96, 2.10, 1.50, 6.91, repro,
2012-02-26,-0.09, -0.24, 2.09, 2.24, 1.63, 7.41, repro,
2012-02-27,-0.91, -0.96, 1.53, 2.13, 1.51, 6.96, repro,
2012-02-28,-0.26, -0.87, 1.54, 2.13, 1.51, 6.97, repro,
2012-02-29,-0.69, -0.09, 2.93, 2.08, 1.48, 6.85, repro,
2012-03-01,-0.56, -1.67, -1.91, 2.12, 1.51, 6.94, repro,
2012-03-02,-1.39, 0.85, -3.67, 2.23, 1.62, 7.27, repro,
2012-03-03,-1.27, -0.36, -7.21, 2.07, 1.52, 6.92, repro,
2012-03-04,-1.05, -0.63, -8.87, 2.11, 1.50, 6.90, repro,
2012-03-05,-0.97, -1.52, -5.64, 2.13, 1.51, 6.91, repro,
2012-03-06,-1.16, -1.03, 1.40, 2.26, 1.64, 7.52, repro,
2012-03-07,-0.33, -0.21, 0.65, 2.12, 1.51, 6.92, repro,
2012-03-08,-0.09, 0.74, -7.62, 2.17, 1.53, 7.03, repro,
2012-03-09,-0.29, -0.91, -10.87, 2.29, 1.57, 7.21, repro,
2012-03-10,-0.39, -0.58, -4.18, 2.19, 1.59, 7.37, repro,
2012-03-11,-0.68, -0.59, 5.13, 2.14, 1.50, 6.93, repro,
2012-03-12,-1.04, -0.94, 9.55, 2.13, 1.51, 6.94, repro,
2012-03-13,-0.46, 0.57, 3.63, 2.11, 1.50, 6.90, repro,
2012-03-14,-1.50, -2.07, -2.98, 2.16, 1.55, 7.08, repro,
2012-03-15,-0.23, -0.47, -1.91, 2.23, 1.56, 7.16, repro,
2012-03-16,0.13, -0.17, 3.03, 2.10, 1.48, 6.85, repro,
2012-03-17,1.58, 0.28, 5.46, 2.13, 1.50, 6.87, repro,
2012-03-18,0.12, -1.18, -2.05, 2.30, 1.58, 7.29, repro,
2012-03-19,-0.33, -1.51, -6.00, 2.20, 1.56, 7.23, repro,
2012-03-20,-1.33, -2.02, -0.46, 2.20, 1.58, 7.29, repro,
2012-03-21,0.37, -1.38, 0.72, 2.28, 1.64, 7.56, repro,
2012-03-22,-1.35, 0.32, -13.02, 2.12, 1.50, 6.89, repro,
2012-03-23,-0.29, -0.65, -11.90, 2.12, 1.53, 6.93, repro,
2012-03-24,0.09, -1.09, -7.93, 2.10, 1.50, 6.87, repro,
2012-03-25,-0.33, -0.25, -9.48, 2.11, 1.51, 6.91, repro,
2012-03-26,-0.61, -0.98, -4.00, 2.16, 1.53, 7.00, repro,
2012-03-27,-1.01, -0.41, -6.79, 2.09, 1.49, 6.80, repro,
2012-03-28,-1.39, 0.13, -2.50, 2.12, 1.51, 6.90, repro,
2012-03-29,-1.72, -1.21, 0.11, 2.10, 1.50, 6.86, repro,
2012-03-30,0.69, 1.15, -0.29, 2.05, 1.48, 6.70, repro,
2012-03-31,-1.27, 1.64, -5.53, 2.07, 1.48, 6.82, repro,
2012-04-01,-1.77, -0.97, -0.65, 2.08, 1.48, 6.84, repro,
2012-04-02,-0.68, 0.08, -6.50, 2.07, 1.47, 6.77, repro,
2012-04-03,-0.76, 0.09, -11.05, 2.06, 1.47, 6.75, repro,
2012-04-04,-0.18, -0.76, -6.16, 2.04, 1.46, 6.71, repro,
2012-04-05,-1.14, -0.69, -11.80, 2.06, 1.48, 6.78, repro,
2012-04-06,-5.30, 1.90, -17.92, 3.14, 2.06, 9.64, repro,
2012-04-07,-1.75, -0.36, -10.38, 2.07, 1.47, 6.79, repro,
2012-04-08,-1.72, -0.19, -11.92, 2.06, 1.46, 6.77, repro,
2012-04-09,-0.70, 0.37, -15.29, 2.10, 1.52, 6.99, repro,
2012-04-10,-1.04, -0.10, -10.99, 2.05, 1.47, 6.78, repro,
2012-04-11,-2.28, -0.32, -5.24, 2.05, 1.47, 6.78, repro,
2012-04-12,-2.47, 1.20, -2.28, 2.10, 1.52, 6.98, repro,
2012-04-13,-1.13, -0.59, -6.66, 2.06, 1.47, 6.79, repro,
2012-04-14,-0.27, -0.64, -5.40, 2.07, 1.47, 6.82, repro,
2012-04-15,0.23, -0.32, -10.15, 2.05, 1.48, 6.83, repro,
2012-04-16,-1.12, 0.81, -12.54, 2.05, 1.47, 6.77, repro,
2012-04-17,-1.37, 0.04, -13.64, 2.06, 1.47, 6.77, repro,
2012-04-20,-1.85, -1.48, -19.08, 2.07, 1.48, 6.84, repro,
2012-04-21,-1.47, -0.15, -17.76, 2.01, 1.44, 6.62, repro,
2012-04-22,-2.14, 0.57, -15.64, 2.03, 1.45, 6.63, repro,
2012-04-23,-1.14, -0.98, -7.82, 2.02, 1.45, 6.62, repro,
2012-04-24,-1.92, 0.30, -9.75, 2.11, 1.50, 6.92, repro,
2012-04-25,-1.47, -0.26, -10.05, 2.17, 1.59, 7.39, repro,
2012-04-26,-1.11, 0.47, -5.60, 2.04, 1.46, 6.71, repro,
2012-04-27,-1.74, -0.67, -13.41, 2.10, 1.47, 6.76, repro,
2012-04-28,-0.99, 0.06, -16.22, 2.06, 1.46, 6.74, repro,
2012-04-29,0.79, -0.23, -16.06, 2.02, 1.45, 6.61, repro,
2012-04-30,-3.27, 0.07, -3.38, 2.03, 1.47, 6.64, repro,
2012-05-01,-2.04, 0.07, -4.72, 2.06, 1.50, 6.81, repro,
2012-05-02,-1.24, -0.12, -3.82, 2.05, 1.50, 6.80, repro,
2012-05-03,-0.68, -0.22, 2.98, 2.02, 1.45, 6.63, repro,
2012-05-04,-0.52, -1.02, -11.54, 2.12, 1.55, 7.22, repro,
2012-05-05,-0.45, -0.23, -14.05, 2.05, 1.46, 6.72, repro,
2012-05-06,0.24, -0.74, -15.96, 2.06, 1.49, 6.78, repro,
2012-05-07,-1.22, -0.66, -16.15, 2.12, 1.55, 7.05, repro,
2012-05-08,0.00, 0.88, -10.64, 2.01, 1.46, 6.63, repro,
2012-05-09,-0.74, 0.30, -17.42, 2.00, 1.44, 6.54, repro,
2012-05-10,-0.64, -0.16, -9.72, 2.02, 1.45, 6.63, repro,
2012-05-11,0.76, 1.95, -18.31, 2.04, 1.45, 6.66, repro,
2012-05-12,-0.75, 0.20, -13.01, 2.03, 1.46, 6.64, repro,
2012-05-13,-0.50, 1.12, -15.02, 2.58, 2.10, 9.04, repro,
2012-05-14,-0.06, -0.20, -12.86, 2.04, 1.46, 6.69, repro,
2012-05-15,0.18, 0.36, -10.91, 2.01, 1.45, 6.59, repro,
2012-05-16,-0.20, 0.26, -8.17, 2.02, 1.45, 6.61, repro,
2012-05-17,0.84, 0.32, -8.52, 2.07, 1.46, 6.74, repro,
2012-05-18,0.08, 0.17, -10.38, 2.05, 1.49, 6.76, repro,
2012-05-19,0.15, 0.11, -8.26, 2.02, 1.45, 6.62, repro,
2012-05-20,0.28, 0.03, -10.35, 2.05, 1.49, 6.75, repro,
2012-05-21,-1.14, 0.17, -6.21, 2.05, 1.49, 6.75, repro,
2012-05-22,-2.10, 0.06, -6.90, 2.10, 1.50, 6.89, repro,
2012-05-23,0.70, -0.02, -6.74, 2.06, 1.49, 6.80, repro,
2012-05-24,-1.39, -0.31, 3.06, 2.09, 1.50, 6.88, repro,
2012-05-25,-4.76, -1.32, -10.12, 2.09, 1.49, 6.82, repro,
2012-05-26,-1.60, -0.31, -6.38, 2.10, 1.50, 6.88, repro,
2012-05-27,0.50, -0.28, -1.11, 2.00, 1.45, 6.58, repro,
2012-05-28,-0.37, 0.54, -6.44, 2.02, 1.45, 6.59, repro,
2012-05-29,-0.74, 0.42, -8.34, 2.02, 1.46, 6.63, repro,
2012-05-30,0.20, -0.43, -6.20, 2.05, 1.46, 6.72, repro,
2012-05-31,0.52, 0.08, -11.21, 2.05, 1.46, 6.71, repro,
2012-06-01,1.49, 1.20, -5.33, 2.06, 1.47, 6.80, repro,
2012-06-02,1.78, 0.32, 1.68, 2.10, 1.48, 6.80, repro,
2012-06-03,0.21, -0.60, -4.58, 2.06, 1.46, 6.76, repro,
2012-06-04,-1.70, -0.07, 0.11, 2.06, 1.46, 6.75, repro,
2012-06-05,-0.61, -1.02, -6.80, 2.05, 1.46, 6.68, repro,
2012-06-06,0.42, 0.48, -6.28, 2.03, 1.45, 6.66, repro,
2012-06-07,-0.58, -1.40, -4.03, 2.05, 1.46, 6.71, repro,
2012-06-08,0.34, -0.71, -6.24, 2.05, 1.45, 6.68, repro,
2012-06-09,-1.22, -1.11, -3.41, 2.06, 1.46, 6.76, repro,
2012-06-10,-0.00, -0.02, -9.67, 2.07, 1.46, 6.73, repro,
2012-06-11,-0.17, -0.05, -8.84, 2.05, 1.46, 6.70, repro,
2012-06-12,0.27, -0.61, -5.44, 2.05, 1.47, 6.70, repro,
2012-06-13,1.89, 0.49, -4.99, 2.06, 1.47, 6.72, repro,
2012-06-14,0.24, -0.04, -4.19, 2.05, 1.46, 6.72, repro,
2012-06-15,-0.33, -0.61, -3.60, 2.08, 1.46, 6.76, repro,
2012-06-16,0.49, -0.27, -6.24, 2.06, 1.46, 6.75, repro,
2012-06-17,-0.60, -0.25, -6.35, 2.05, 1.46, 6.73, repro,
2012-06-18,1.59, -0.19, -2.12, 2.05, 1.46, 6.73, repro,
2012-06-19,0.74, -0.06, -7.40, 2.06, 1.45, 6.70, repro,
2012-06-20,0.43, -0.49, -4.96, 2.07, 1.47, 6.81, repro,
2012-06-21,0.70, -0.54, -10.04, 2.07, 1.47, 6.79, repro,
2012-06-22,1.20, -0.33, -6.23, 2.06, 1.47, 6.77, repro,
2012-06-23,-1.26, -1.46, 2.65, 2.07, 1.46, 6.76, repro,
2012-06-24,-1.20, -0.58, -4.52, 2.05, 1.45, 6.68, repro,
2012-06-25,-0.89, -0.94, -0.71, 2.06, 1.45, 6.69, repro,
2012-06-26,-1.65, -0.19, 2.96, 2.07, 1.46, 6.76, repro,
2012-06-27,-2.59, -1.34, -13.05, 3.87, 3.02, 13.99, repro,
2012-06-28,1.32, -0.66, -2.19, 2.11, 1.50, 6.85, repro,
2012-06-29,0.37, -0.56, -0.52, 2.04, 1.45, 6.67, repro,
2012-06-30,0.79, -0.71, -3.77, 2.06, 1.47, 6.76, repro,
2012-07-01,2.49, -0.56, -5.40, 2.07, 1.46, 6.71, repro,
2012-07-02,0.58, -1.73, -6.36, 2.07, 1.46, 6.75, repro,
2012-07-03,1.23, -1.42, -4.70, 2.07, 1.46, 6.75, repro,
2012-07-04,0.55, 0.28, -5.14, 2.07, 1.47, 6.76, repro,
2012-07-05,1.03, -0.53, -9.73, 2.08, 1.49, 6.83, repro,
2012-07-06,-0.31, -2.15, -9.41, 2.09, 1.49, 6.87, repro,
2012-07-07,0.11, -1.03, -11.27, 2.08, 1.47, 6.76, repro,
2012-07-08,-2.60, 0.34, -6.66, 2.19, 1.59, 7.23, repro,
2012-07-09,1.26, 0.06, -3.38, 2.10, 1.49, 6.90, repro,
2012-07-10,0.36, 0.07, -2.21, 2.09, 1.49, 6.89, repro,
2012-07-11,0.55, -1.11, -4.55, 2.05, 1.46, 6.68, repro,
2012-07-12,1.59, -1.19, -5.63, 2.06, 1.46, 6.71, repro,
2012-07-13,1.03, -0.70, -8.28, 2.06, 1.46, 6.74, repro,
2012-07-14,2.27, -0.30, -9.68, 2.07, 1.46, 6.78, repro,
2012-07-15,1.11, -0.19, -4.92, 2.05, 1.46, 6.71, repro,
2012-07-16,-0.70, -0.65, -4.19, 2.04, 1.46, 6.70, repro,
2012-07-17,1.12, -0.20, -3.00, 2.06, 1.46, 6.72, repro,
2012-07-18,2.01, -0.77, -6.13, 2.09, 1.50, 6.91, repro,
2012-07-19,-0.18, -0.69, -4.70, 2.07, 1.46, 6.77, repro,
2012-07-20,2.18, -1.07, -1.12, 2.07, 1.48, 6.83, repro,
2012-07-21,0.15, -0.72, -2.05, 2.04, 1.46, 6.67, repro,
2012-07-22,0.90, -0.72, -11.38, 2.05, 1.46, 6.70, repro,
2012-07-23,1.58, -0.94, -7.76, 2.05, 1.45, 6.68, repro,
2012-07-24,-1.05, 0.19, -7.32, 2.09, 1.48, 6.81, repro,
2012-07-25,0.21, -0.61, -1.89, 2.06, 1.46, 6.75, repro,
2012-07-26,1.21, -0.87, -0.71, 2.06, 1.46, 6.75, repro,
2012-07-27,0.76, -2.14, -1.66, 2.06, 1.46, 6.72, repro,
2012-07-28,0.68, -1.32, -4.40, 2.04, 1.47, 6.72, repro,
2012-07-29,-0.08, -1.31, -4.88, 2.05, 1.46, 6.71, repro,
2012-07-30,0.37, -1.78, -7.73, 2.06, 1.47, 6.76, repro,
2012-07-31,1.35, 0.02, -2.59, 2.05, 1.46, 6.73, repro,
2012-08-01,-0.27, 0.71, -7.45, 2.05, 1.45, 6.68, repro,
2012-08-02,0.52, -0.29, -2.81, 2.06, 1.46, 6.73, repro,
2012-08-03,0.11, -1.59, -4.19, 2.06, 1.48, 6.74, repro,
2012-08-04,0.56, -1.23, -0.08, 2.06, 1.46, 6.73, repro,
2012-08-05,0.97, -1.49, -0.40, 2.06, 1.46, 6.74, repro,
2012-08-06,-0.39, -0.05, 1.34, 2.08, 1.47, 6.77, repro,
2012-08-07,-0.41, -0.46, -0.86, 2.08, 1.46, 6.73, repro,
2012-08-08,-0.59, 0.20, -5.94, 2.19, 1.58, 7.59, repro,
2012-08-09,0.07, -0.98, -1.01, 2.06, 1.46, 6.73, repro,
2012-08-10,-0.18, 0.07, -4.32, 2.05, 1.46, 6.71, repro,
2012-08-11,-0.55, -0.21, 4.19, 2.06, 1.45, 6.71, repro,
2012-08-12,-0.67, 0.31, -3.01, 2.10, 1.49, 6.84, repro,
2012-08-13,0.03, -0.77, 2.44, 2.06, 1.45, 6.73, repro,
2012-08-14,-0.83, -1.13, 2.91, 2.06, 1.45, 6.72, repro,
2012-08-15,0.44, -1.22, 3.87, 2.04, 1.46, 6.69, repro,
2012-08-16,-0.87, -1.39, 1.69, 2.11, 1.48, 6.82, repro,
2012-08-17,-0.87, -0.62, 4.03, 2.07, 1.46, 6.78, repro,
2012-08-18,-0.59, -0.21, -5.40, 2.07, 1.46, 6.78, repro,
2012-08-19,-0.75, 0.02, 1.96, 2.07, 1.46, 6.74, repro,
2012-08-20,-0.68, 0.09, 3.56, 2.06, 1.47, 6.82, repro,
2012-08-21,-0.56, -0.30, -0.78, 2.05, 1.47, 6.73, repro,
2012-08-22,-0.74, -0.35, -5.67, 2.82, 2.25, 9.78, repro,
2012-08-23,0.09, -0.48, -1.67, 2.06, 1.46, 6.72, repro,
2012-08-24,-0.14, -0.09, 0.02, 2.06, 1.45, 6.72, repro,
2012-08-25,0.11, -0.33, 4.71, 2.06, 1.46, 6.74, repro,
2012-08-26,-1.46, -0.34, 6.73, 2.09, 1.50, 6.94, repro,
2012-08-27,-1.35, 1.29, 3.22, 2.07, 1.47, 6.77, repro,
2012-08-28,-1.74, -0.76, -1.99, 2.10, 1.50, 6.91, repro,
2012-08-29,-1.11, -0.00, -1.03, 2.09, 1.51, 6.93, repro,
2012-08-30,-1.01, 0.68, 8.43, 2.05, 1.46, 6.71, repro,
2012-08-31,-1.63, 0.56, 7.39, 2.05, 1.47, 6.76, repro,
2012-09-01,-1.88, -0.70, -0.08, 2.05, 1.47, 6.77, repro,
2012-09-02,-0.76, 0.33, 5.31, 2.06, 1.47, 6.74, repro,
2012-09-03,0.01, 0.13, 1.16, 2.08, 1.47, 6.78, repro,
2012-09-04,-1.69, 0.21, 2.47, 2.10, 1.49, 6.86, repro,
2012-09-05,-0.20, 0.41, 5.44, 2.04, 1.47, 6.71, repro,
2012-09-06,-0.66, 0.21, 8.87, 2.12, 1.54, 6.96, repro,
2012-09-07,-1.74, -0.17, 7.73, 2.17, 1.57, 7.33, repro,
2012-09-08,-0.21, -0.01, 5.24, 2.12, 1.53, 7.16, repro,
2012-09-09,-1.44, 0.37, 6.47, 2.10, 1.49, 6.81, repro,
2012-09-10,-0.13, 1.39, 2.05, 2.08, 1.49, 6.81, repro,
2012-09-11,-0.17, 0.97, 2.59, 2.05, 1.47, 6.69, repro,
2012-09-12,0.85, 1.14, 0.29, 2.08, 1.50, 6.85, repro,
2012-09-13,-1.09, 0.83, -0.77, 2.12, 1.50, 6.84, repro,
2012-09-14,0.18, 0.25, -5.82, 2.10, 1.51, 6.94, repro,
2012-09-15,1.85, -0.23, -2.15, 2.05, 1.46, 6.71, repro,
2012-09-16,-0.31, 0.90, -2.62, 2.04, 1.46, 6.69, repro,
2012-09-17,0.29, 0.85, 0.45, 2.04, 1.47, 6.72, repro,
2012-09-18,-0.65, -0.22, -6.95, 3.00, 2.37, 10.30, repro,
2012-09-19,0.01, 0.41, 5.82, 2.10, 1.51, 6.93, repro,
2012-09-20,-0.45, 0.42, 3.87, 2.06, 1.46, 6.70, repro,
2012-09-21,0.52, 0.59, 5.25, 2.04, 1.46, 6.67, repro,
2012-09-22,-0.23, -0.03, 5.97, 2.05, 1.46, 6.71, repro,
2012-09-23,0.75, 0.21, 6.76, 2.06, 1.48, 6.79, repro,
2012-09-24,0.71, 1.48, 1.00, 2.12, 1.50, 6.85, repro,
2012-09-25,-0.07, 0.93, -0.10, 2.17, 1.54, 7.05, repro,
2012-09-26,0.13, 0.11, 4.39, 2.05, 1.46, 6.69, repro,
2012-09-27,-0.48, -0.49, 6.78, 2.09, 1.50, 6.86, repro,
2012-09-28,-0.65, 0.34, 7.75, 2.09, 1.50, 6.87, repro,
2012-09-29,0.25, 0.33, 1.17, 2.06, 1.47, 6.75, repro,
2012-09-30,-1.14, -0.35, -2.72, 2.09, 1.51, 6.90, repro,
2012-10-01,0.28, 0.40, 2.30, 2.09, 1.48, 6.82, repro,
2012-10-02,0.40, 0.23, 1.27, 2.06, 1.47, 6.73, repro,
2012-10-03,0.43, 0.84, 3.95, 2.07, 1.51, 6.85, repro,
2012-10-04,0.71, 0.43, 3.55, 2.09, 1.51, 6.87, repro,
2012-10-05,-0.11, 0.39, 2.94, 2.08, 1.51, 6.83, repro,
2012-10-06,-0.35, 0.63, 4.53, 2.06, 1.47, 6.75, repro,
2012-10-07,-0.47, 0.74, 4.80, 2.09, 1.50, 6.84, repro,
2012-10-08,0.01, -0.09, 6.79, 2.09, 1.51, 6.89, repro,
2012-10-09,0.27, 3.65, -2.97, 3.12, 2.92, 10.95, repro,
2012-10-10,0.89, -0.13, 5.01, 2.06, 1.50, 6.77, repro,
2012-10-11,-1.01, 0.68, 4.98, 2.00, 1.43, 6.60, repro,
2012-10-12,-0.61, -0.27, 7.98, 2.06, 1.47, 6.76, repro,
2012-10-13,0.91, 0.03, 6.40, 2.05, 1.46, 6.70, repro,
2012-10-14,-1.41, 0.30, 3.92, 2.01, 1.46, 6.69, repro,
2012-10-15,-1.24, -1.52, 13.91, 2.00, 1.46, 6.68, repro,
2012-10-16,-1.36, 2.55, 16.96, 2.06, 1.46, 6.74, repro,
2012-10-17,0.27, -0.66, 4.88, 2.05, 1.48, 6.70, repro,
2012-10-18,-0.21, 0.46, 5.42, 2.11, 1.50, 6.87, repro,
2012-10-19,-0.39, -0.13, 13.01, 2.09, 1.49, 6.86, repro,
2012-10-20,-1.90, -1.06, 16.19, 2.08, 1.47, 6.75, repro,